WE3C Weather Reports


Display with metric or nautical units.
time (UTC)temp
F
wind
direction
speed
MPH
gust
MPH
rain 1hr
in
rain 24hr
in
rain mn
in
humidity
%
barometer
mb
20260507143046 52 360 0.0 0.0 0.00 0.00 0.00 64 1017.4
20260507141538 52 13 0.0 0.0 0.00 0.00 0.00 63 1017.3
20260507140021 50 350 0.0 0.0 0.00 0.00 0.00 71 1017.4
20260507134517 50 360 0.0 0.0 0.00 0.00 0.00 74 1017.6
20260507133019 49 346 0.0 0.0 0.00 0.00 0.00 77 1017.6
20260507131518 48 5 0.0 0.0 0.00 0.00 0.00 78 1017.4
20260507130013 47 360 0.0 0.0 0.00 0.00 0.00 80 1017.3
20260507124519 47 5 0.0 0.0 0.00 0.00 0.00 81 1017.4
20260507123011 46 360 0.0 0.0 0.00 0.00 0.00 82 1017.4
20260507121512 46 360 0.0 0.0 0.00 0.00 0.00 82 1017.3
20260507120009 46 360 0.0 0.0 0.00 0.00 0.00 80 1017.1
20260507114509 46 313 0.0 0.0 0.00 0.00 0.00 78 1017.2
20260507113024 46 360 0.0 0.0 0.00 0.00 0.00 77 1017.2
20260507111536 46 360 0.0 0.0 0.00 0.00 0.00 76 1016.8
20260507110026 46 317 0.0 0.0 0.00 0.00 0.00 76 1016.7
20260507104534 46 360 0.0 0.0 0.00 0.00 0.00 76 1016.4
20260507103025 46 339 0.0 0.0 0.00 0.00 0.00 76 1016.1
20260507101520 46 360 0.0 0.0 0.00 0.00 0.00 75 1015.8
20260507100018 46 336 0.0 0.0 0.00 0.00 0.00 75 1015.7
20260507094518 47 360 0.0 0.0 0.00 0.00 0.00 74 1015.5
20260507093016 47 360 0.0 0.0 0.00 0.00 0.00 74 1015.5
20260507091514 47 329 0.0 0.0 0.00 0.00 0.00 74 1015.3
20260507090015 47 323 0.0 0.0 0.00 0.00 0.00 74 1015.1
20260507084513 47 360 0.0 0.0 0.00 0.00 0.00 74 1015.1
20260507083012 47 346 0.0 0.0 0.00 0.00 0.00 74 1015.2
20260507081510 48 342 0.0 0.0 0.00 0.00 0.00 73 1015.2
20260507080011 48 339 0.0 0.0 0.00 0.00 0.00 73 1015.2
20260507074508 48 340 0.0 0.0 0.00 0.00 0.00 73 1015.3
20260507073005 48 323 0.0 0.0 0.00 0.00 0.00 73 1015.5
20260507071505 48 335 0.0 0.0 0.00 0.00 0.00 73 1015.5
20260507070011 48 328 0.0 0.0 0.00 0.00 0.00 73 1015.5
20260507064502 48 330 0.0 0.0 0.00 0.00 0.00 73 1015.6
20260507063002 48 325 0.0 0.0 0.00 0.00 0.00 73 1015.6
20260507061502 48 329 0.0 0.0 0.00 0.00 0.00 74 1015.5
20260507060104 48 360 0.0 0.0 0.00 0.00 0.00 75 1015.7
20260507054601 49 360 0.0 0.0 0.00 0.00 0.00 75 1015.7
20260507053056 49 360 0.0 0.0 0.00 0.00 0.00 76 1015.9
20260507051555 49 338 0.0 0.0 0.00 0.00 0.00 77 1015.8
20260507050052 50 342 0.0 0.0 0.00 0.00 0.00 77 1015.5
20260507044557 50 360 0.0 0.0 0.00 0.00 0.00 78 1015.1
20260507043059 50 360 0.0 0.0 0.00 0.00 0.00 78 1015.0
20260507041540 50 340 0.0 0.0 0.00 0.00 0.00 77 1014.6
20260507040040 50 355 0.0 0.0 0.00 0.00 0.00 77 1014.7
20260507034537 50 346 0.0 0.0 0.00 0.00 0.00 77 1015.0
20260507033035 51 350 0.0 0.0 0.00 0.00 0.00 76 1015.2
20260507031531 51 18 0.0 0.0 0.00 0.00 0.00 76 1014.7
20260507030028 52 339 0.0 0.0 0.00 0.00 0.00 76 1014.6
20260507024525 54 33 0.0 0.0 0.00 0.00 0.00 73 1014.5
20260507023023 54 24 0.0 0.0 0.00 0.00 0.00 72 1014.5
20260507021522 55 321 0.0 0.0 0.00 0.00 0.00 73 1014.6
20260507020027 55 321 0.0 0.0 0.00 0.00 0.00 74 1014.6
20260507014516 56 329 0.0 0.0 0.00 0.00 0.00 75 1014.6
20260507013015 58 346 0.0 0.0 0.00 0.00 0.00 72 1014.3
20260507011512 59 323 0.0 0.0 0.00 0.00 0.00 70 1014.1
20260507010011 60 281 0.0 0.0 0.00 0.00 0.00 69 1013.9
20260507004510 60 260 0.0 0.0 0.00 0.00 0.00 70 1013.8
20260507003009 60 360 0.0 0.0 0.00 0.00 0.00 70 1013.3
20260507001527 60 266 0.0 0.0 0.00 0.00 0.00 72 1013.0
20260507000013 60 287 0.0 0.0 0.00 0.00 0.00 74 1012.7
20260506234507 61 263 0.0 0.0 0.00 0.00 0.00 77 1012.6
20260506233007 63 360 0.0 0.0 0.00 0.00 0.00 77 1012.7
20260506231506 63 360 0.0 0.0 0.00 0.00 0.00 79 1012.4
20260506230006 63 360 0.0 0.0 0.00 0.00 0.00 79 1012.1
20260506224505 64 360 0.0 0.0 0.00 0.00 0.00 79 1012.0
20260506223004 64 360 0.0 0.0 0.00 0.00 0.00 79 1012.1
20260506221504 64 213 0.0 0.0 0.00 0.00 0.00 79 1011.9
20260506220003 64 360 0.0 0.0 0.00 0.00 0.00 79 1011.7
20260506214501 63 360 0.0 0.0 0.00 0.00 0.00 79 1011.7
20260506213106 63 360 0.0 0.0 0.00 0.00 0.00 79 1011.5
20260506213001 63 243 0.0 0.0 0.00 0.00 0.00 79 1011.5
20260506211559 63 213 0.0 0.0 0.00 0.00 0.00 78 1011.2
20260506204558 62 360 0.0 0.0 0.00 0.00 0.00 76 1011.1
20260506203120 61 229 0.0 0.0 0.00 0.00 0.00 74 1011.2
20260506201556 61 207 0.0 0.0 0.00 0.00 0.00 74 1011.2
20260506200058 61 213 0.0 0.0 0.00 0.00 0.00 73 1011.2
20260506194600 61 360 0.0 0.0 0.00 0.00 0.00 72 1011.1
20260506193104 61 210 0.0 0.0 0.00 0.00 0.00 69 1011.2
20260506191553 60 207 0.0 0.0 0.00 0.00 0.00 67 1011.4
20260506190053 59 198 0.0 0.0 0.00 0.00 0.00 67 1011.6
20260506184551 59 360 0.0 0.0 0.00 0.00 0.00 68 1011.7
20260506183051 59 360 0.0 0.0 0.00 0.00 0.00 68 1012.0
20260506181549 58 205 0.0 0.0 0.00 0.00 0.00 68 1012.1
20260506180041 58 207 0.0 0.0 0.00 0.00 0.00 68 1012.1
20260506174540 58 214 0.0 0.0 0.00 0.00 0.00 68 1012.2
20260506173044 58 198 0.0 0.0 0.00 0.00 0.00 68 1012.0
20260506171538 58 157 0.0 0.0 0.00 0.00 0.00 69 1012.0
20260506170044 58 175 0.0 0.0 0.00 0.00 0.00 69 1012.0
20260506164548 58 186 0.0 0.0 0.00 0.00 0.00 69 1012.3
20260506163037 58 360 0.0 0.0 0.00 0.00 0.00 69 1012.3
20260506161532 59 186 0.0 0.0 0.00 0.00 0.00 69 1012.2
20260506160034 59 145 0.0 0.0 0.00 0.00 0.00 70 1011.7
20260506154528 59 360 0.0 0.0 0.00 0.00 0.00 71 1012.4
20260506153027 59 171 0.0 0.0 0.00 0.00 0.00 71 1012.9
20260506151526 59 360 0.0 0.0 0.00 0.00 0.00 72 1013.1
20260506150026 59 188 0.0 0.0 0.00 0.00 0.00 72 1013.0